Location: Newark
(45.4426°N, 12.3253°E)
Time: 07:43:45
(UTC+00:00)

OTV 5 (USA 277) - Pass Details

Date: 30 October 2019
Orbit: 310 x 324 km, 54.5° (Epoch: 17 October)

Event Time Altitude Azimuth Distance (km) Brightness Sun altitude
Rises 17:31:50 0° 233° (SW) 2,051 ? -16.3°
Reaches altitude 10° 17:33:48 10° 233° (SW) 1,226 ? -16.7°
Maximum altitude 17:36:31 89° 149° (SSE) 326 ? -17.2°
Enters shadow 17:36:39 79° 60° (ENE) 332 ? -17.2°
